OIBS  Sirri Island  Airport

Iran

Add Bookmark
ICAO OIBS
IATA SXI
Type Airport
Status Operational
Latitude
25° 54' 32" N
25.908899
Longitude
54° 32' 21" E
54.539398
Local (DST + 5) UTC (GMT + 4)
Aug 30, 2015 08:02 Aug 30, 2015 03:32
Sunrise-Sunset Local UTC
Begin Civil Twilight 06:06 01:36
Sunrise 06:30 02:00
Sunset 07:15 14:45
End Civil Twilight 07:38 15:08
VFR
VFR
MVFR
MVFR
IFR
IFR
LIFR
LIFR
Unknown
Unavailable

Current Weather

METAR Observed VFR
OIBS 291500Z 10006KT CAVOK 35/28 Q1000 Sat, Aug 29, 2015 @ 15:00 UTC
(12 Hours, 32 Minutes ago)
Visual Flight Rules
Wind Visibility Conditions
100° at 6 knots (11 kph) 10 km or more
  • No significant weather
Temperatures Readings Precipitation
Current Temp
35°C
95°F
Dewpoint
28°C
82°F
Heat Index
49°C
120°
Humidity 67%
Altimeter 29.53" Hg
Sea Level Pressure 1,000 mb
Field Elevation
14 m
46 ft
None Recorded

Additional weather within a 92.6km radius of OIBS

Map ICAO Location
OIBA 49.4km E (094°)
OIBL 74.8km N/NE (022°)
OIBK 88.5km NW (321°)
VFR
VFR
MVFR
MVFR
IFR
IFR
LIFR
LIFR
Unknown
Unavailable
-
-

CheckWX.com is intended as a tool to help pilots better visualize weather data. It is not intended as a substitute for an official weather briefing obtained from a Flight Service Station. CheckWX.com does not meet the FAA requirements for an official pre-flight weather briefing. Therefore, it's important that pilots still call and obtain an official FSS pre-flight weather briefing.

© 2007-2015 CheckWX.com
03:32:04 UTC